Terug naar catalogus

STARLINK-36785

ActiefCommunicatieVLEO
NORAD 67853·PAYLOAD·🇺🇸 United States

Gelanceerd Feb 20, 2026 vanaf Vandenberg Space Force Base

Loading…

Volgende Passages (komende 24 uur)

TLE

VersSource: CelesTrak SupGP

Epoch: Sep 14, 2026, 22:54 UTC

1 67853C 26034D   26257.95465278  .00012691  00000+0  37507-3 0  2572
2 67853  53.1594  43.2892 0001230  80.9422 109.1412 15.34374961    19

Volg STARLINK-36785 in realtime met AllMySat

Download on the App Store